Retour au catalogue

STARLINK-5725

ActifCommunicationsVLEO
NORAD 55605·PAYLOAD·🇺🇸 United States

Lancé Feb 12, 2023 depuis Cape Canaveral Space Force Station

Loading…

Prochains Passages (prochaines 24 heures)

TLE

FraisSource: CelesTrak SupGP

Époque: Sep 15, 2026, 02:43 UTC

1 55605C 23020AN  26258.11368056  .00002719  00000+0  98478-4 0  2587
2 55605  43.0037   4.3993 0001456 267.8036 321.9396 15.27574948    12

Suivez STARLINK-5725 en temps réel avec AllMySat

Download on the App Store